ICE39R BIAR-BIKF

Flight info

Callsign ICE39R
Flight time 0h 36m
Altitude 22000
Route ASKUR1C ASKUR DCT DEVUD DEVUD3M
Aircraft A21N/M-SDE2E3FGHIRWXY/LB1

Departure

Time 2026-04-26 12:43
Airport Akureyri International Airport (BIAR)

Arrival

Time 2026-04-26 13:19
Airport Keflavik International Airport (BIKF)
Time Latitude Longitude Altitude Speed Heading
2026-04-26 12:22 65.65499 -18.07480 29 ft 0 kts 84°
2026-04-26 12:39 65.65499 -18.07465 30 ft 3 kts 93°
2026-04-26 12:39 65.65482 -18.07402 29 ft 5 kts 115°
2026-04-26 12:39 65.65480 -18.07275 26 ft 9 kts 85°
2026-04-26 12:39 65.65528 -18.07182 27 ft 13 kts 355°
2026-04-26 12:40 65.65739 -18.07223 26 ft 46 kts 355°
2026-04-26 12:40 65.66132 -18.07297 26 ft 59 kts 355°
2026-04-26 12:40 65.66524 -18.07372 28 ft 53 kts 355°
2026-04-26 12:40 65.66759 -18.07417 26 ft 18 kts 357°
2026-04-26 12:41 65.66821 -18.07379 26 ft 8 kts 15°
2026-04-26 12:41 65.66846 -18.07410 26 ft 3 kts 231°
2026-04-26 12:41 65.66840 -18.07414 27 ft 1 kts 187°
2026-04-26 12:41 65.66835 -18.07412 27 ft 0 kts 175°
2026-04-26 12:42 65.66773 -18.07401 28 ft 39 kts 176°
2026-04-26 12:42 65.66186 -18.07299 26 ft 129 kts 175°
2026-04-26 12:43 65.65115 -18.07109 549 ft 163 kts 174°
2026-04-26 12:43 65.63990 -18.06867 1716 ft 157 kts 174°
2026-04-26 12:43 65.62878 -18.06695 2333 ft 166 kts 176°
2026-04-26 12:43 65.61706 -18.06481 2908 ft 171 kts 175°
2026-04-26 12:44 65.60512 -18.06266 3581 ft 172 kts 177°
2026-04-26 12:44 65.59351 -18.06654 4265 ft 170 kts 201°
2026-04-26 12:44 65.58250 -18.07764 4868 ft 176 kts 201°
2026-04-26 12:44 65.57038 -18.08899 5253 ft 197 kts 200°
2026-04-26 12:45 65.55668 -18.10130 5582 ft 225 kts 200°
2026-04-26 12:45 65.54107 -18.11520 5982 ft 252 kts 199°
2026-04-26 12:45 65.52412 -18.13020 6660 ft 265 kts 199°
2026-04-26 12:45 65.50667 -18.14568 7525 ft 269 kts 200°
2026-04-26 12:46 65.48933 -18.16272 8440 ft 271 kts 203°
2026-04-26 12:46 65.47203 -18.18104 9363 ft 273 kts 203°
2026-04-26 12:46 65.45456 -18.19957 10194 ft 278 kts 202°
2026-04-26 12:46 65.43618 -18.21899 10549 ft 298 kts 203°
2026-04-26 12:47 65.41654 -18.23975 10825 ft 318 kts 203°
2026-04-26 12:47 65.39570 -18.26173 11121 ft 336 kts 203°
2026-04-26 12:47 65.37526 -18.29056 11684 ft 346 kts 219°
2026-04-26 12:47 65.35941 -18.33445 12389 ft 352 kts 232°
2026-04-26 12:48 65.34542 -18.38301 13121 ft 356 kts 233°
2026-04-26 12:48 65.33066 -18.43082 13857 ft 359 kts 231°
2026-04-26 12:48 65.31492 -18.47770 14504 ft 362 kts 225°
2026-04-26 12:48 65.29580 -18.51694 15151 ft 364 kts 216°
2026-04-26 12:49 65.27524 -18.55290 15790 ft 367 kts 214°
2026-04-26 12:49 65.25472 -18.58838 16408 ft 371 kts 214°
2026-04-26 12:49 65.23371 -18.62495 17020 ft 375 kts 215°
2026-04-26 12:49 65.21251 -18.66202 17639 ft 380 kts 215°
2026-04-26 12:50 65.19133 -18.69998 18253 ft 384 kts 217°
2026-04-26 12:50 65.17065 -18.74071 18793 ft 387 kts 218°
2026-04-26 12:50 65.14991 -18.78218 19320 ft 391 kts 219°
2026-04-26 12:50 65.12906 -18.82380 19856 ft 394 kts 218°
2026-04-26 12:51 65.10795 -18.86577 20372 ft 397 kts 218°
2026-04-26 12:51 65.08664 -18.90794 20883 ft 400 kts 218°
2026-04-26 12:51 65.06515 -18.95028 21389 ft 403 kts 218°
2026-04-26 12:51 65.04348 -18.99291 21870 ft 407 kts 218°
2026-04-26 12:52 65.02168 -19.03572 22050 ft 403 kts 218°
2026-04-26 12:52 65.00029 -19.07768 22058 ft 399 kts 218°
2026-04-26 12:52 64.97888 -19.11948 22052 ft 399 kts 218°
2026-04-26 12:52 64.95745 -19.16126 22056 ft 399 kts 218°
2026-04-26 12:53 64.93628 -19.20247 22052 ft 401 kts 218°
2026-04-26 12:53 64.91478 -19.24419 22047 ft 401 kts 218°
2026-04-26 12:53 64.89326 -19.28587 22042 ft 401 kts 217°
2026-04-26 12:53 64.87166 -19.32768 22044 ft 401 kts 217°
2026-04-26 12:54 64.85010 -19.36936 22044 ft 401 kts 217°
2026-04-26 12:54 64.82852 -19.41092 22054 ft 401 kts 217°
2026-04-26 12:54 64.80699 -19.45230 22058 ft 400 kts 217°
2026-04-26 12:54 64.78537 -19.49376 22045 ft 400 kts 217°
2026-04-26 12:55 64.76380 -19.53501 22052 ft 400 kts 217°
2026-04-26 12:55 64.74223 -19.57621 22054 ft 400 kts 217°
2026-04-26 12:55 64.72065 -19.61742 22051 ft 400 kts 217°
2026-04-26 12:55 64.69906 -19.65843 22054 ft 400 kts 217°
2026-04-26 12:56 64.67745 -19.69925 22053 ft 400 kts 217°
2026-04-26 12:56 64.65578 -19.74015 22044 ft 400 kts 217°
2026-04-26 12:56 64.63410 -19.78102 22039 ft 402 kts 217°
2026-04-26 12:56 64.61236 -19.82198 22032 ft 402 kts 217°
2026-04-26 12:57 64.59067 -19.86281 22036 ft 401 kts 216°
2026-04-26 12:57 64.56897 -19.90359 22052 ft 401 kts 217°
2026-04-26 12:57 64.54726 -19.94430 22049 ft 401 kts 216°
2026-04-26 12:58 64.50377 -20.02561 22026 ft 401 kts 217°
2026-04-26 12:58 64.48204 -20.06613 22024 ft 401 kts 217°
2026-04-26 12:58 64.46024 -20.10668 22023 ft 401 kts 216°
2026-04-26 12:58 64.43847 -20.14712 22024 ft 401 kts 216°
2026-04-26 12:59 64.41669 -20.18742 22020 ft 401 kts 217°
2026-04-26 12:59 64.39497 -20.22754 22008 ft 400 kts 216°
2026-04-26 12:59 64.37316 -20.26772 22009 ft 399 kts 216°
2026-04-26 12:59 64.35170 -20.30722 22011 ft 400 kts 216°
2026-04-26 13:00 64.32991 -20.34737 22014 ft 402 kts 217°
2026-04-26 13:00 64.30841 -20.38877 22005 ft 404 kts 222°
2026-04-26 13:00 64.29070 -20.43893 21994 ft 407 kts 237°
2026-04-26 13:00 64.27948 -20.49892 21995 ft 410 kts 254°
2026-04-26 13:01 64.27534 -20.56383 22007 ft 411 kts 265°
2026-04-26 13:01 64.27368 -20.62953 22005 ft 411 kts 266°
2026-04-26 13:01 64.27208 -20.69516 21996 ft 411 kts 265°
2026-04-26 13:01 64.27016 -20.76105 21988 ft 412 kts 265°
2026-04-26 13:02 64.26808 -20.82663 21986 ft 411 kts 265°
2026-04-26 13:02 64.26595 -20.89200 21948 ft 408 kts 264°
2026-04-26 13:02 64.26378 -20.95711 21135 ft 408 kts 264°
2026-04-26 13:02 64.26155 -21.02264 20104 ft 414 kts 264°
2026-04-26 13:03 64.25921 -21.08872 19321 ft 413 kts 264°
2026-04-26 13:03 64.25690 -21.15414 18759 ft 406 kts 263°
2026-04-26 13:03 64.25462 -21.21844 18128 ft 402 kts 263°
2026-04-26 13:03 64.25236 -21.28127 17476 ft 396 kts 263°
2026-04-26 13:04 64.25004 -21.34479 16889 ft 390 kts 263°
2026-04-26 13:04 64.24776 -21.40550 16376 ft 383 kts 263°
2026-04-26 13:04 64.24547 -21.46607 15883 ft 376 kts 263°
2026-04-26 13:04 64.24323 -21.52551 15414 ft 369 kts 263°
2026-04-26 13:05 64.24096 -21.58385 14958 ft 364 kts 262°
2026-04-26 13:05 64.23867 -21.64201 14503 ft 365 kts 262°
2026-04-26 13:05 64.23637 -21.70023 14036 ft 366 kts 262°
2026-04-26 13:05 64.23408 -21.75850 13546 ft 367 kts 263°
2026-04-26 13:06 64.23176 -21.81707 13051 ft 367 kts 262°
2026-04-26 13:06 64.22940 -21.87541 12591 ft 366 kts 262°
2026-04-26 13:06 64.22707 -21.93287 12126 ft 366 kts 262°
2026-04-26 13:06 64.22467 -21.99089 11659 ft 362 kts 262°
2026-04-26 13:07 64.22229 -22.04793 11208 ft 354 kts 263°
2026-04-26 13:07 64.21998 -22.10341 10882 ft 344 kts 262°
2026-04-26 13:07 64.21770 -22.15720 10660 ft 330 kts 261°
2026-04-26 13:07 64.21550 -22.20863 10479 ft 317 kts 261°
2026-04-26 13:08 64.21337 -22.25781 10312 ft 303 kts 262°
2026-04-26 13:08 64.21128 -22.30530 10034 ft 295 kts 261°
2026-04-26 13:08 64.20990 -22.33624 9766 ft 293 kts 262°
2026-04-26 13:08 64.20786 -22.38274 9304 ft 291 kts 261°
2026-04-26 13:09 64.20581 -22.42878 8890 ft 290 kts 262°
2026-04-26 13:09 64.20378 -22.47450 8533 ft 285 kts 261°
2026-04-26 13:09 64.20177 -22.51947 8167 ft 281 kts 261°
2026-04-26 13:09 64.19974 -22.56374 7823 ft 279 kts 262°
2026-04-26 13:10 64.19772 -22.60796 7430 ft 277 kts 261°
2026-04-26 13:10 64.19572 -22.65146 7162 ft 270 kts 262°
2026-04-26 13:10 64.19376 -22.69384 6861 ft 264 kts 262°
2026-04-26 13:10 64.19181 -22.73565 6503 ft 262 kts 261°
2026-04-26 13:11 64.18988 -22.77697 6125 ft 260 kts 261°
2026-04-26 13:11 64.18795 -22.81807 5743 ft 257 kts 259°
2026-04-26 13:11 64.18599 -22.85874 5345 ft 256 kts 259°
2026-04-26 13:11 64.18195 -22.89787 4937 ft 250 kts 242°
2026-04-26 13:12 64.17177 -22.92903 4620 ft 248 kts 218°
2026-04-26 13:12 64.15714 -22.94924 4327 ft 243 kts 203°
2026-04-26 13:12 64.14193 -22.96542 4001 ft 239 kts 202°
2026-04-26 13:12 64.12705 -22.98140 3678 ft 235 kts 203°
2026-04-26 13:13 64.11236 -22.99764 3300 ft 234 kts 202°
2026-04-26 13:13 64.09782 -23.01389 3037 ft 228 kts 202°
2026-04-26 13:13 64.08404 -23.02939 2973 ft 212 kts 202°
2026-04-26 13:13 64.07132 -23.04342 2969 ft 198 kts 198°
2026-04-26 13:14 64.05816 -23.04917 2978 ft 190 kts 171°
2026-04-26 13:14 64.04597 -23.04086 2883 ft 182 kts 156°
2026-04-26 13:14 64.03440 -23.02952 2519 ft 181 kts 156°
2026-04-26 13:14 64.02266 -23.01889 2239 ft 182 kts 158°
2026-04-26 13:15 64.01077 -23.00864 2189 ft 184 kts 158°
2026-04-26 13:15 63.99872 -22.99840 2195 ft 185 kts 158°
2026-04-26 13:15 63.98830 -22.98226 2188 ft 183 kts 127°
2026-04-26 13:15 63.98373 -22.95560 1908 ft 185 kts 100°
2026-04-26 13:16 63.98386 -22.92569 1794 ft 186 kts 92°
2026-04-26 13:16 63.98447 -22.89648 1788 ft 184 kts 94°
2026-04-26 13:16 63.98475 -22.86732 1796 ft 183 kts 95°
2026-04-26 13:16 63.98491 -22.83834 1769 ft 183 kts 95°
2026-04-26 13:17 63.98508 -22.78330 1369 ft 161 kts 96°
2026-04-26 13:17 63.98508 -22.75872 1142 ft 149 kts 96°
2026-04-26 13:18 63.98506 -22.71754 717 ft 121 kts 97°
2026-04-26 13:18 63.98504 -22.69840 541 ft 121 kts 97°
2026-04-26 13:18 63.98504 -22.66034 215 ft 122 kts 96°
2026-04-26 13:19 63.98502 -22.64143 137 ft 109 kts 91°
2026-04-26 13:19 63.98503 -22.63051 144 ft 39 kts 89°
2026-04-26 13:19 63.98501 -22.62416 152 ft 41 kts 90°
2026-04-26 13:19 63.98503 -22.61787 161 ft 36 kts 84°
2026-04-26 13:20 63.98560 -22.61358 165 ft 26 kts 62°
2026-04-26 13:20 63.98607 -22.61164 167 ft 8 kts 54°
2026-04-26 13:20 63.98663 -22.61121 168 ft 10 kts 356°
2026-04-26 13:20 63.98735 -22.61126 167 ft 12 kts
2026-04-26 13:21 63.98819 -22.61125 167 ft 10 kts
2026-04-26 13:21 63.98851 -22.61066 169 ft 11 kts 75°
2026-04-26 13:21 63.98933 -22.60933 175 ft 15 kts 359°
2026-04-26 13:21 63.99040 -22.60938 174 ft 16 kts 359°
2026-04-26 13:22 63.99148 -22.60947 169 ft 12 kts 339°
2026-04-26 13:22 63.99175 -22.61114 165 ft 13 kts 272°
2026-04-26 13:22 63.99174 -22.61323 160 ft 14 kts 269°
2026-04-26 13:22 63.99196 -22.61416 157 ft 6 kts 336°
2026-04-26 13:23 63.99247 -22.61431 155 ft 9 kts
2026-04-26 13:23 63.99312 -22.61430 152 ft 10 kts 360°
2026-04-26 13:23 63.99393 -22.61427 149 ft 13 kts
2026-04-26 13:23 63.99471 -22.61497 147 ft 14 kts 276°
2026-04-26 13:24 63.99470 -22.61658 147 ft 1 kts 270°
2026-04-26 13:24 63.99469 -22.61681 147 ft 2 kts 265°
2026-04-26 13:24 63.99467 -22.61692 147 ft 0 kts 242°
2026-04-26 13:24 63.99465 -22.61697 147 ft 3 kts 227°
2026-04-26 13:25 63.99444 -22.61715 147 ft 4 kts 190°
2026-04-26 13:25 63.99417 -22.61717 147 ft 3 kts 180°
2026-04-26 13:25 63.99413 -22.61717 147 ft 1 kts 179°
2026-04-26 13:25 63.99407 -22.61717 147 ft 0 kts 179°